This demonstration page uses our WeatherBlox Daily Observations layout. Learn more.

Left ArrowRight Arrow

Hourly Observations for August 20, 2015

Temp ( °F °C ) Dew Point ( °F °C ) Humidity (%) Winds ( mph kmh ) Pressure ( in mb ) Visibility ( mi km ) Precip ( " mm )
12:53 am 00:53 Cloudy 75 23.9 53 11.7 46 46 Calm 29.81 1010 10 16 0.00 0.00
1:53 am 01:53 Cloudy 73 22.8 53 11.7 50 50 W 3 6 29.82 1010 10 16 0.00 0.00
2:53 am 02:53 Partly Cloudy 72 22.2 52 11.1 50 50 NW 3 6 29.82 1010 10 16 0.00 0.00
3:53 am 03:53 Mostly Cloudy 71 21.7 51 10.6 49 49 Calm 29.82 1010 10 16 0.00 0.00
4:53 am 04:53 Clear 69 20.6 51 10.6 53 53 Calm 29.83 1010 10 16 0.00 0.00
5:53 am 05:53 Mostly Cloudy 68 20 52 11.1 57 57 Calm 29.83 1010 10 16 0.00 0.00
6:53 am 06:53 Cloudy 66 18.9 51 10.6 59 59 Calm 29.84 1011 10 16 0.00 0.00
7:53 am 07:53 Sunny with Smoke 69 20.6 53 11.7 57 57 Calm 29.85 1011 8 13 0.00 0.00
8:53 am 08:53 Sunny with Smoke 71 21.7 54 12.2 55 55 Calm 29.86 1011 8 13 0.00 0.00
9:53 am 09:53 Sunny with Smoke 73 22.8 54 12.2 51 51 Calm 29.86 1011 10 16 0.00 0.00
10:53 am 10:53 Sunny with Smoke 78 25.6 54 12.2 43 43 SSW 5 7 29.85 1011 10 16 0.00 0.00
11:53 am 11:53 Sunny with Smoke 82 27.8 53 11.7 37 37 SSE 3 6 29.83 1010 10 16 0.00 0.00
12:53 pm 12:53 Sunny with Smoke 87 30.6 50 10 28 28 Calm 29.81 1010 10 16 0.00 0.00
1:53 pm 13:53 Sunny with Smoke 91 32.8 51 10.6 26 26 SW 6 9 29.79 1009 10 16 0.00 0.00
2:53 pm 14:53 Sunny with Smoke 92 33.3 51 10.6 25 25 SSW 7 11 29.77 1008 10 16 0.00 0.00
3:53 pm 15:53 Sunny with Smoke 95 35 50 10 22 22 S 10 17 29.74 1007 10 16 0.00 0.00
4:53 pm 16:53 Sunny with Smoke 94 34.4 50 10 22 22 S 10 17 29.72 1006 10 16 0.00 0.00
5:53 pm 17:53 Partly Cloudy with Smoke 93 33.9 48 8.9 21 21 S 9 15 29.71 1006 10 16 0.00 0.00
6:53 pm 18:53 Partly Cloudy with Smoke 90 32.2 54 12.2 29 29 SSE 8 13 29.71 1006 10 16 0.00 0.00
7:53 pm 19:53 Cloudy with Smoke 86 30 54 12.2 33 33 SE 6 9 29.72 1006 10 16 0.00 0.00
8:53 pm 20:53 Cloudy with Smoke 82 27.8 55 12.8 40 40 SSE 6 9 29.73 1007 10 16 0.00 0.00
9:53 pm 21:53 Cloudy 81 27.2 56 13.3 42 42 S 6 9 29.76 1008 10 16 0.00 0.00
10:53 pm 22:53 Cloudy 77 25 57 13.9 50 50 Calm 29.76 1008 10 16 0.00 0.00
11:53 pm 23:53 Cloudy 73 22.8 57 13.9 57 57 Calm 29.77 1008 10 16 0.00 0.00

Powered by AerisWeather